Regional Weather Roundup
Issued by NWS

Home | Current Version | Previous Version | Text Only | Print | Product List | Glossary Off
Versions: 1 2 3 4 5 6 7 8 9 10 11 12 13 14 15 16 17 18 19 20 21 22 23 24 25 26 27 28 29 30 31 32 33 34 35 36 37 38 39 40 41 42 43 44 45 46 47 48 49 50

000
ASUS45 KBOU 230510
RWRCO

WEATHER ROUNDUP FOR COLORADO
NATIONAL WEATHER SERVICE DENVER/BOULDER CO
1000 PM MST MON JAN 22 2018

NOTE: "FAIR" INDICATES FEW OR NO CLOUDS BELOW 12000 FEET WITH NO
SIGNIFICANT WEATHER AND/OR OBSTRUCTIONS TO VISIBILITY.

COZ001>005-013-030-031-230600-
...NORTHWEST COLORADO...

CITY           SKY/WX    TMP DP  RH WIND       PRES   REMARKS
CRAIG          CLOUDY    17  10  74 SE3       30.26R
HAYDEN         LGT SNOW  14   8  77 SE5       30.25R WCI   6
MEEKER         CLOUDY    12   8  84 CALM      30.25R
RABBIT EARS PA LGT SNOW   9   5  85 W5        30.10R VSB 1   WCI   0
STEAMBOAT SPGS CLOUDY    11   6  81 CALM      30.23R
WALDEN         CLOUDY    16   7  67 SW12      30.14R WCI   3
$$

COZ006>008-011-230600-
...WEST CENTRAL VALLEYS...

CITY           SKY/WX    TMP DP  RH WIND       PRES   REMARKS
GRAND JUNCTION CLOUDY    22  17  81 CALM      30.31R
MONTROSE       FAIR      22  13  68 N3        30.30R
EAGLE          CLOUDY    20  14  77 E8        30.26R WCI  10
RIFLE          CLOUDY    26  19  74 CALM      30.29R
DELTA          FAIR      23  14  68 N5        30.30R WCI  17
NUCLA          FAIR      21  12  68 SE10      30.31R WCI  10
$$

COZ017>023-064>068-230600-
...SOUTHWEST COLORADO...

CITY           SKY/WX    TMP DP  RH WIND       PRES   REMARKS
DURANGO        FAIR      10   9  95 CALM      30.23S
CORTEZ         FAIR      13   9  84 E9        30.27R WCI   1
PAGOSA SPRINGS FAIR       7   4  87 CALM      30.22S
TELLURIDE      FAIR      12   6  75 CALM      30.22S
WOLF CREEK PAS FAIR      10  -9  40 SW9       30.19S WCI  -2
$$

COZ009-010-012-014-032>034-037-058>063-230600-
...CENTRAL COLORADO...

CITY           SKY/WX    TMP DP  RH WIND       PRES   REMARKS
ASPEN          MOCLDY    13   5  70 S6        30.20S WCI   4
BUENA VISTA    FAIR       8  -5  54 CALM      30.13S
COPPER MTN     NOT AVBL
BERTHOUD PASS  LGT SNOW   1  -9  60 NW40G52   29.95F WCI -27
COTTONWOOD PAS FAIR      27  -8  22 NW14G24   30.07F WCI  15
GUNNISON       CLOUDY     6   1  80 E6        30.24S WCI  -4
KREMMLING      FAIR      12   5  73 CALM      30.22S
LEADVILLE      CLOUDY     9   0  67 N10       30.12R WCI  -5
MONARCH PASS     N/A      5   1  85 W33       30.19R WCI -20
SALIDA         FAIR      21   7  54 N8        30.21R WCI  11
SUNLIGHT       LGT SNOW   9   5  85 W8        30.18S WCI  -4
WILKERSON PASS   N/A     12 -13  31 NW9G17    30.07S WCI   0
$$

COZ069>075-230600-
...SAN LUIS VALLEY/SANGRE DE CRISTO MOUNTAINS...

CITY           SKY/WX    TMP DP  RH WIND       PRES   REMARKS
ALAMOSA        FAIR      -1  -6  79 NE3       30.19R
DEL NORTE      FAIR      14   1  57 W8        30.20R WCI   3
LA VETA PASS   FAIR      12   1  62 SW26G32     N/A  WCI  -8
SAGUACHE       FAIR      10   0  61 NW12      30.21R WCI  -4
$$

COZ035-036-038>040-230600-
...NORTHERN COLORADO FRONT RANGE...

CITY           SKY/WX    TMP DP  RH WIND       PRES   REMARKS
DENVER INTL AP MOCLDY    25   8  48 S13       30.07S WCI  14
DMNS CITY PARK NOT AVBL
AURORA         MOCLDY    30   5  34 CALM      30.07S
FRONT RANGE AP FAIR      25  12  56 S3G17     30.08S
ERIE MUNI ARPT FAIR      34   6  31 W6        30.12R WCI  29
BOULDER MUN AP FAIR      36   3  25 CALM      30.06R
CENTENNIAL     MOCLDY    28   9  44 S5        30.07R WCI  23
BROOMFIELD     MOCLDY    36   7  30 W21G29    30.07F
FORT COLLINS   MOCLDY    25  16  68 CALM      30.09R
LONGMONT       FAIR      30  16  56 CALM      30.09R
$$

COZ041-046-047-076>085-087-088-230600-
...PIKES PEAK/PALMER DIVIDE AND SOUTHERN FOOTHILLS...

CITY           SKY/WX    TMP DP  RH WIND       PRES   REMARKS
COLO. SPRINGS  CLOUDY    29   9  43 CALM      30.10R
A. F. ACADEMY  CLOUDY    24   9  52 CALM      30.08R
SCHRIEVER AFB  CLOUDY    28   6  38 CALM      30.10R
CHEYENNE MTN   MOCLDY    32  -3  22 S9        30.03R WCI  24
ELLICOTT         N/A    N/A N/A N/A E8        30.07R
FALCON         CLOUDY    26   4  39 W5        30.09R WCI  20
FORT CARSON    FAIR      33   4  29 CALM      30.08R
LIMON          FAIR      12   7  80 CALM      30.09F
MONUMENT HILL  CLOUDY    21   3  45 S6        30.09R WCI  14
CANON CITY     FAIR      32  12  43 W13       30.09S WCI  22
WALSENBURG     NOT AVBL
TRINIDAD       FAIR      23   6  48 W10       30.13R WCI  12
$$

COZ042>045-048>051-090-091-230600-
...NORTHEAST COLORADO...

CITY           SKY/WX    TMP DP  RH WIND       PRES   REMARKS
GREELEY ARPT   FAIR      24  16  71 E3        30.09S
AKRON          FAIR      23   9  55 NW14      30.07R WCI  11
BURLINGTON     FAIR      14   6  70 W10       30.11R WCI   1
WRAY           FAIR      14   9  79 W6        30.10R WCI   5
YUMA           FAIR      25  10  54 NW15      30.07S WCI  12
STERLING       FAIR      30  16  55 N14       30.07R WCI  20
HOLYOKE        FAIR      28  14  54 NW14      30.08R WCI  17
FORT MORGAN    FAIR      27  11  51 W8        30.10R WCI  19
$$

COZ086-089-092>099-230600-
...SOUTHEAST COLORADO...

CITY           SKY/WX    TMP DP  RH WIND       PRES   REMARKS
PUEBLO         FAIR      29  14  53 E8        30.11R WCI  21
LA JUNTA       FAIR      30  13  49 S5        30.15R WCI  25
LAMAR          FAIR      22  10  60 CALM      30.13R
SPRINGFIELD      N/A     20  10  65 NW7       30.14S WCI  11
$$



USA.gov is the U.S. government's official web portal to all federal, state and local government web resources and services.